When you browse on this site, cookies collect data to enhance your experience and personalize the content and advertising you see.
Visit our Privacy Policy to learn more. By continuing to use the site, you agree to this use of cookies and data.
  • En España
  • Lista de países
  • Para 7 días
  • Temperatura del agua
  • El tiempo en el mapa
  • Informadores
  • user-avatar
    Iniciar sesión

    Tiempo cada hora Córdoba

    Hoy, 26 Enero, Domingo

    Tiempo Temperatura Precipitaciones Viento Presión Humedad
    00:00 +27°C° 0 mm 2 mps 721 mmHg 33%
    01:00 +27°C° 0 mm 1 mps 721 mmHg 35%
    02:00 +27°C° 0 mm 1 mps 721 mmHg 34%
    03:00 +26°C° 0 mm 1 mps 721 mmHg 33%
    04:00 +26°C° 0 mm 1 mps 721 mmHg 32%
    05:00 +25°C° 0 mm 1 mps 721 mmHg 31%
    06:00 +27°C° 0 mm 1 mps 722 mmHg 28%
    07:00 +28°C° 0 mm 2 mps 722 mmHg 26%
    08:00 +31°C° 0 mm 1 mps 723 mmHg 34%
    09:00 +33°C° 0.1 mm 1 mps 723 mmHg 32%
    10:00 +34°C° 0.1 mm 1 mps 722 mmHg 30%
    11:00 +36°C° 0.1 mm 1 mps 722 mmHg 28%
    12:00 +38°C° 0 mm 2 mps 722 mmHg 25%
    13:00 +39°C° 0 mm 2 mps 722 mmHg 23%
    14:00 +40°C° 0 mm 3 mps 721 mmHg 21%
    15:00 +37°C° 0.3 mm 4 mps 721 mmHg 31%
    16:00 +34°C° 0.3 mm 4 mps 720 mmHg 40%
    17:00 +29°C° 0.3 mm 5 mps 720 mmHg 50%
    18:00 +28°C° 0.4 mm 6 mps 720 mmHg 53%
    19:00 +27°C° 0.4 mm 7 mps 721 mmHg 55%
    20:00 +26°C° 0.4 mm 7 mps 721 mmHg 58%
    21:00 +27°C° 0.3 mm 7 mps 722 mmHg 54%
    22:00 +27°C° 0.3 mm 6 mps 722 mmHg 51%
    23:00 +27°C° 0.3 mm 5 mps 722 mmHg 47%

    Mañana, 27 Enero, Lunes

    Tiempo Temperatura Precipitaciones Viento Presión Humedad
    00:00 +27°C° 0 mm 5 mps 723 mmHg 45%
    01:00 +27°C° 0 mm 5 mps 723 mmHg 43%
    02:00 +27°C° 0 mm 5 mps 723 mmHg 40%
    03:00 +26°C° 0 mm 5 mps 723 mmHg 39%
    04:00 +25°C° 0 mm 5 mps 723 mmHg 37%
    05:00 +23°C° 0 mm 5 mps 724 mmHg 35%
    06:00 +25°C° 0 mm 4 mps 724 mmHg 34%
    07:00 +26°C° 0 mm 3 mps 725 mmHg 33%
    08:00 +27°C° 0 mm 2 mps 725 mmHg 32%
    09:00 +29°C° 0 mm 2 mps 725 mmHg 29%
    10:00 +31°C° 0 mm 2 mps 725 mmHg 25%
    11:00 +34°C° 0 mm 2 mps 725 mmHg 22%
    12:00 +35°C° 0 mm 2 mps 725 mmHg 20%
    13:00 +36°C° 0 mm 3 mps 725 mmHg 19%
    14:00 +37°C° 0 mm 3 mps 724 mmHg 18%
    15:00 +37°C° 0 mm 3 mps 724 mmHg 18%
    16:00 +37°C° 0 mm 3 mps 723 mmHg 17%
    17:00 +36°C° 0 mm 4 mps 723 mmHg 17%
    18:00 +34°C° 0 mm 3 mps 722 mmHg 21%
    19:00 +31°C° 0 mm 2 mps 722 mmHg 24%
    20:00 +29°C° 0 mm 2 mps 722 mmHg 27%
    21:00 +28°C° 0 mm 2 mps 722 mmHg 29%
    22:00 +27°C° 0 mm 2 mps 722 mmHg 32%
    23:00 +26°C° 0 mm 2 mps 722 mmHg 35%

    Pasado mañana, 28 Enero, Martes

    Tiempo Temperatura Precipitaciones Viento Presión Humedad
    00:00 +26°C° 0 mm 2 mps 722 mmHg 36%
    01:00 +25°C° 0 mm 2 mps 722 mmHg 38%
    02:00 +25°C° 0 mm 2 mps 721 mmHg 40%
    03:00 +24°C° 0 mm 1 mps 721 mmHg 41%
    04:00 +23°C° 0 mm 1 mps 721 mmHg 42%
    05:00 +23°C° 0 mm 1 mps 721 mmHg 44%
    06:00 +25°C° 0 mm 1 mps 721 mmHg 40%
    07:00 +27°C° 0 mm 2 mps 721 mmHg 36%
    08:00 +28°C° 0 mm 3 mps 721 mmHg 32%
    09:00 +30°C° 0 mm 3 mps 721 mmHg 30%
    10:00 +33°C° 0 mm 4 mps 721 mmHg 28%
    11:00 +35°C° 0 mm 5 mps 721 mmHg 26%
    12:00 +36°C° 0 mm 6 mps 720 mmHg 27%
    13:00 +36°C° 0 mm 6 mps 720 mmHg 27%
    14:00 +38°C° 0 mm 7 mps 719 mmHg 27%
    15:00 +36°C° 0 mm 7 mps 718 mmHg 30%
    16:00 +35°C° 0 mm 6 mps 718 mmHg 33%
    17:00 +34°C° 0 mm 6 mps 717 mmHg 35%
    18:00 +32°C° 0 mm 5 mps 717 mmHg 41%
    19:00 +29°C° 0 mm 4 mps 717 mmHg 46%
    20:00 +27°C° 0 mm 4 mps 717 mmHg 52%
    21:00 +26°C° 0 mm 3 mps 717 mmHg 57%
    22:00 +25°C° 0 mm 3 mps 717 mmHg 61%
    23:00 +24°C° 0 mm 2 mps 717 mmHg 66%

    29 Enero, Miércoles

    Tiempo Temperatura Precipitaciones Viento Presión Humedad
    00:00 +24°C° 0.3 mm 2 mps 717 mmHg 69%
    01:00 +24°C° 0.3 mm 2 mps 717 mmHg 72%
    02:00 +23°C° 0.3 mm 2 mps 717 mmHg 74%
    03:00 +21°C° 1.3 mm 4 mps 717 mmHg 79%
    04:00 +20°C° 1.3 mm 6 mps 718 mmHg 83%
    05:00 +18°C° 1.3 mm 8 mps 719 mmHg 88%
    06:00 +19°C° 1.2 mm 6 mps 720 mmHg 88%
    07:00 +19°C° 1.2 mm 5 mps 720 mmHg 89%
    08:00 +19°C° 1.2 mm 3 mps 721 mmHg 90%
    09:00 +21°C° 0.1 mm 3 mps 721 mmHg 78%
    10:00 +24°C° 0.1 mm 3 mps 721 mmHg 66%
    11:00 +26°C° 0.1 mm 3 mps 721 mmHg 54%
    12:00 +28°C° 0 mm 3 mps 721 mmHg 47%
    13:00 +29°C° 0 mm 3 mps 721 mmHg 40%
    14:00 +32°C° 0 mm 4 mps 721 mmHg 33%
    15:00 +33°C° 0 mm 4 mps 721 mmHg 32%
    16:00 +33°C° 0 mm 4 mps 720 mmHg 31%
    17:00 +33°C° 0 mm 5 mps 720 mmHg 30%
    18:00 +30°C° 0 mm 5 mps 720 mmHg 30%
    19:00 +28°C° 0 mm 5 mps 721 mmHg 30%
    20:00 +26°C° 0 mm 5 mps 721 mmHg 30%
    21:00 +25°C° 0 mm 4 mps 722 mmHg 34%
    22:00 +23°C° 0 mm 4 mps 723 mmHg 39%
    23:00 +22°C° 0 mm 3 mps 723 mmHg 43%

    30 Enero, Jueves

    Tiempo Temperatura Precipitaciones Viento Presión Humedad
    00:00 +21°C° 0 mm 3 mps 723 mmHg 44%
    01:00 +21°C° 0 mm 3 mps 723 mmHg 45%
    02:00 +20°C° 0 mm 2 mps 723 mmHg 46%
    03:00 +20°C° 0 mm 2 mps 723 mmHg 47%
    04:00 +19°C° 0 mm 2 mps 723 mmHg 48%
    05:00 +19°C° 0 mm 2 mps 723 mmHg 49%
    06:00 +20°C° 0 mm 2 mps 724 mmHg 48%
    07:00 +21°C° 0 mm 2 mps 724 mmHg 47%
    08:00 +24°C° 0 mm 2 mps 725 mmHg 47%
    09:00 +26°C° 0 mm 2 mps 725 mmHg 41%
    10:00 +28°C° 0 mm 2 mps 725 mmHg 36%
    11:00 +30°C° 0 mm 2 mps 725 mmHg 31%
    12:00 +32°C° 0 mm 2 mps 724 mmHg 28%
    13:00 +34°C° 0 mm 2 mps 724 mmHg 24%
    14:00 +35°C° 0 mm 2 mps 723 mmHg 21%
    15:00 +35°C° 0 mm 2 mps 722 mmHg 21%
    16:00 +35°C° 0 mm 2 mps 722 mmHg 21%
    17:00 +35°C° 0 mm 2 mps 721 mmHg 21%
    18:00 +32°C° 0 mm 2 mps 721 mmHg 25%
    19:00 +30°C° 0 mm 2 mps 721 mmHg 28%
    20:00 +27°C° 0 mm 2 mps 721 mmHg 32%
    21:00 +26°C° 0 mm 2 mps 722 mmHg 35%
    22:00 +25°C° 0 mm 2 mps 722 mmHg 38%
    23:00 +25°C° 0 mm 3 mps 723 mmHg 41%

    31 Enero, Viernes

    Tiempo Temperatura Precipitaciones Viento Presión Humedad
    00:00 +24°C° 0 mm 2 mps 723 mmHg 42%
    01:00 +24°C° 0 mm 2 mps 722 mmHg 42%
    02:00 +24°C° 0 mm 2 mps 722 mmHg 42%
    03:00 +23°C° 0 mm 2 mps 722 mmHg 43%
    04:00 +23°C° 0 mm 2 mps 722 mmHg 43%
    05:00 +23°C° 0 mm 2 mps 722 mmHg 44%
    06:00 +25°C° 0 mm 2 mps 723 mmHg 40%
    07:00 +27°C° 0 mm 2 mps 723 mmHg 35%
    08:00 +30°C° 0 mm 2 mps 724 mmHg 30%
    09:00 +32°C° 0 mm 2 mps 724 mmHg 27%
    10:00 +35°C° 0 mm 3 mps 724 mmHg 23%
    11:00 +37°C° 0 mm 3 mps 724 mmHg 20%
    12:00 +38°C° 0 mm 3 mps 723 mmHg 19%
    13:00 +39°C° 0 mm 3 mps 723 mmHg 17%
    14:00 +39°C° 0 mm 3 mps 722 mmHg 16%
    15:00 +39°C° 0 mm 3 mps 722 mmHg 16%
    16:00 +39°C° 0 mm 3 mps 721 mmHg 17%
    17:00 +38°C° 0 mm 4 mps 721 mmHg 18%
    18:00 +36°C° 0 mm 4 mps 721 mmHg 22%
    19:00 +33°C° 0 mm 4 mps 721 mmHg 27%
    20:00 +30°C° 0 mm 5 mps 721 mmHg 31%
    21:00 +29°C° 0 mm 4 mps 722 mmHg 33%
    22:00 +28°C° 0 mm 4 mps 722 mmHg 34%
    23:00 +27°C° 0 mm 3 mps 722 mmHg 36%
    Mostrar más